Wind_Speed
29 29 32 25 21 11 12 14 13 16 13 8 6 6 8 10 10 9 9 16 19 25 27 24 22 20 18 18 22 18 14 10 8 7 8 8 6 6 5 4 5 6 5 4
29 29 27 23 17 16 13 16 14 10 8 8 8 10 8 11 10 12 11 10 13 21 28 29 26 23 20 16 17 17 14 12 9 9 8 12 9 10 7 6 5 5 4 4
24 20 24 23 20 17 18 13 17 9 11 4 9 10 10 10 13 14 15 11 15 20 24 30 28 25 21 21 18 14 10 8 11 13 12 13 11 12 8 7 6 5 3 2
14 16 25 22 19 17 14 14 12 13 10 8 9 8 8 8 10 15 18 17 12 19 21 23 28 27 24 20 19 16 12 10 10 13 13 12 11 8 6 9 8 6 4 5
9 21 26 22 19 19 11 9 12 10 7 6 4 6 4 2 3 11 20 21 18 14 16 19 24 23 18 21 22 18 17 13 10 11 12 14 14 12 12 11 10 7 5 5
12 18 17 20 21 18 14 11 12 9 8 9 9 7 4 2 2 4 8 18 22 19 18 16 18 21 22 22 22 21 20 17 14 11 12 14 15 13 11 10 10 9 7 7
16 16 18 19 21 22 20 15 8 7 7 7 15 7 5 7 1 4 3 8 18 21 20 19 16 17 21 26 26 24 22 21 19 15 13 13 15 15 13 11 10 10 8 7
11 10 15 19 20 18 24 19 8 8 9 10 18 11 5 7 6 1 5 4 10 23 22 23 21 13 15 20 24 27 26 23 23 19 15 13 14 16 15 14 13 13 10 10
8 7 12 13 19 19 24 22 14 6 8 12 10 11 12 8 5 9 8 8 5 13 22 25 24 23 17 18 25 29 29 26 25 22 19 15 14 16 16 16 15 15 13 14
12 10 10 10 15 16 20 20 14 6 8 10 7 7 4 9 9 9 9 8 7 7 11 16 21 21 16 15 21 25 29 30 27 24 22 18 15 15 16 19 18 16 17 17
16 12 9 9 6 13 14 16 12 16 6 6 8 5 4 5 5 8 8 7 7 8 9 11 15 16 17 16 18 22 25 29 29 28 25 22 19 17 17 19 19 18 18 19
7 9 7 11 10 10 12 15 16 16 9 6 4 7 6 6 6 4 4 4 5 7 11 14 13 10 14 14 21 21 25 27 28 27 26 24 21 20 19 19 19 20 19 19
10 7 8 5 5 8 6 10 14 13 17 10 10 7 12 6 6 6 5 6 7 8 8 11 15 18 16 19 17 25 23 25 29 30 29 28 25 25 23 21 20 20 21 21
10 11 5 4 6 10 9 11 11 11 7 11 6 15 17 14 8 2 2 3 10 13 13 13 13 15 20 20 21 26 27 25 27 31 31 31 29 27 25 23 23 23 23 24
8 8 9 9 10 11 13 12 11 9 8 3 13 15 18 16 13 8 4 5 9 13 18 19 17 15 16 20 25 28 30 30 26 29 31 31 32 32 31 29 27 26 26 26
7 9 11 10 11 13 14 17 16 15 12 11 12 14 14 13 12 11 10 10 9 11 14 20 23 20 18 18 22 28 33 33 30 25 31 33 33 34 35 35 34 32 31 30
7 10 12 6 10 7 7 15 16 17 15 15 8 15 13 15 14 15 16 16 16 13 11 15 18 19 19 19 18 20 28 33 33 30 27 34 33 32 33 34 38 36 35 34
7 12 10 8 10 5 7 14 15 14 16 14 15 16 16 17 18 20 19 21 22 22 15 11 13 16 16 20 19 17 19 22 29 31 30 31 33 31 33 38 38 35 35 37
10 10 7 7 10 3 12 16 15 14 13 14 15 16 17 17 17 20 20 21 24 26 26 19 16 16 16 19 20 16 12 17 23 28 34 34 33 32 26 35 40 37 36 36
8 8 6 8 4 6 7 14 12 10 11 13 15 18 19 19 21 20 22 24 26 28 31 31 23 19 18 16 16 18 24 17 16 23 29 37 39 37 31 26 34 41 41 38
10 10 9 8 4 5 10 11 10 4 6 8 14 18 20 23 27 25 24 26 30 31 32 35 34 29 25 21 17 15 18 18 11 16 23 30 37 38 37 34 29 40 40 40
11 10 10 10 5 6 10 13 11 10 12 12 14 19 23 28 32 35 34 33 33 34 35 38 40 34 31 31 26 21 18 19 18 14 14 15 22 33 34 37 36 34 40 40
9 10 7 9 8 7 5 9 14 15 15 15 15 16 18 19 23 30 38 41 42 39 41 42 45 41 35 30 36 34 29 22 22 18 11 11 13 20 30 37 39 38 41 39
11 12 10 10 11 10 10 9 9 11 13 14 16 18 22 24 25 26 30 36 44 45 47 48 48 47 49 38 34 36 39 37 31 28 24 18 11 18 23 29 33 36 43 40
15 13 13 14 12 14 14 12 12 10 13 16 19 22 23 27 25 31 33 35 34 41 45 47 52 53 50 48 44 37 35 36 40 39 35 31 23 20 22 26 32 30 35 37
18 18 16 12 13 13 14 14 13 14 16 18 21 24 25 27 26 29 33 34 31 30 39 47 52 54 56 52 46 45 39 37 37 36 41 44 41 34 28 28 25 27 34 28
Wind_Direction
192 191 193 188 180 173 170 165 155 154 157 175 198 224 228 235 243 210 188 196 201 191 188 191 185 178 163 168 177 177 178 187 208 199 184 190 175 200 194 174 157 154 128 91
193 201 200 183 180 184 176 180 172 163 171 169 212 209 209 224 223 228 221 188 187 191 193 192 190 186 175 157 157 172 182 203 209 208 190 176 200 195 199 185 170 155 133 131
198 203 190 188 189 193 201 192 201 187 194 180 195 231 226 246 228 218 216 192 183 199 198 194 192 192 187 176 167 163 162 183 203 207 204 205 207 202 195 192 197 183 173 160
208 198 193 189 197 197 203 207 203 194 183 189 190 209 223 254 244 228 221 226 206 192 199 199 197 200 200 188 175 177 178 167 190 211 205 208 203 203 205 217 211 213 200 218
191 190 188 194 198 203 211 210 208 197 191 164 172 206 223 237 271 257 234 234 238 226 203 207 207 203 197 199 195 182 186 185 193 197 204 205 206 199 204 212 220 214 212 219
185 180 192 210 207 209 218 173 164 182 176 195 179 193 33 52 282 209 241 238 237 238 234 217 213 213 209 204 202 210 211 197 201 202 202 204 205 201 205 215 228 220 222 230
170 172 186 191 196 203 196 173 154 176 191 190 180 178 107 85 346 228 257 232 217 225 240 243 230 212 212 212 213 213 218 213 207 210 201 206 204 205 199 207 220 221 222 231
169 163 175 180 184 193 197 192 195 185 187 168 179 172 120 93 77 316 225 220 201 197 224 240 251 252 236 227 225 221 217 226 214 212 211 204 212 206 208 203 214 226 228 234
141 131 144 170 186 178 187 199 204 121 156 173 170 140 128 124 139 108 172 193 184 194 210 226 239 252 250 239 218 216 219 219 216 220 215 211 213 217 212 212 209 219 223 231
163 142 153 131 168 184 187 188 186 184 164 179 147 136 159 169 130 131 125 129 148 186 219 232 232 237 243 234 228 223 217 220 219 221 222 214 214 222 220 217 213 214 226 234
156 160 174 162 151 159 160 182 184 194 179 183 168 146 193 184 148 142 141 155 168 182 197 222 229 234 237 226 218 223 220 213 211 216 219 219 216 221 227 227 222 217 221 230
167 152 121 141 136 136 181 188 182 199 196 188 163 139 200 199 204 186 172 180 199 213 219 222 216 232 218 222 224 219 218 222 211 209 215 216 216 222 228 233 229 226 223 225
160 153 124 143 185 182 171 168 190 202 197 183 197 157 182 192 218 205 219 247 256 254 258 237 236 243 239 232 230 220 211 215 220 220 220 224 219 221 225 229 232 233 230 230
177 175 173 184 176 185 190 182 180 190 194 193 177 161 177 185 191 216 233 250 259 264 273 281 266 252 243 256 236 214 216 212 214 221 223 224 223 222 224 230 234 234 233 231
202 199 205 205 200 206 206 202 199 201 203 184 176 167 182 193 206 230 261 316 304 280 286 289 293 284 260 248 236 219 215 214 216 217 219 224 224 223 225 227 231 234 236 235
199 180 181 182 196 207 218 220 223 221 222 213 195 200 204 219 230 245 265 273 286 305 296 294 291 292 284 266 246 225 218 217 220 225 223 220 223 227 227 226 224 229 232 232
203 188 176 174 194 200 235 224 221 221 219 222 222 225 222 228 235 237 253 266 277 281 290 294 291 289 290 284 279 245 232 226 225 226 221 221 225 228 232 235 234 232 230 231
184 182 168 155 157 209 214 201 205 208 217 224 240 241 242 244 250 256 252 258 265 272 273 263 271 284 280 282 277 288 251 246 239 235 222 223 224 231 235 234 235 236 237 237
176 175 158 167 193 197 199 203 199 206 229 234 246 256 263 267 269 269 267 262 261 261 265 260 248 253 256 266 270 253 261 255 256 244 234 220 230 235 237 237 237 235 237 241
168 176 182 171 193 202 212 211 222 238 271 258 261 265 269 271 270 268 269 268 265 265 262 259 249 234 236 231 239 249 254 257 258 256 250 228 231 234 237 241 237 237 240 239
177 189 202 203 226 246 214 199 208 216 232 282 282 279 277 273 271 268 261 264 266 263 258 257 254 244 237 234 224 215 226 241 240 245 243 244 238 241 241 241 248 234 237 241
189 189 190 202 215 238 216 218 223 235 266 278 286 284 280 274 269 267 260 254 254 258 258 258 253 251 241 238 231 222 213 214 225 221 227 237 248 251 249 240 244 245 235 237
204 202 197 192 204 190 204 238 250 257 259 270 276 288 295 304 299 285 270 261 252 248 249 252 254 255 246 247 244 235 229 218 216 207 199 210 234 242 253 255 246 238 235 236
214 206 207 210 231 227 234 253 261 258 268 285 296 299 298 296 296 309 294 276 259 252 247 247 251 253 253 247 248 246 242 238 228 222 227 229 234 246 241 245 244 238 226 232
228 219 222 229 233 241 249 252 261 279 304 308 308 308 307 306 306 309 311 299 276 256 248 243 244 246 250 249 248 250 248 244 243 239 229 236 241 249 257 247 236 231 225 218
245 243 239 250 245 250 260 270 288 301 307 316 316 312 309 308 301 307 313 308 287 266 250 244 245 247 246 245 244 248 251 252 250 247 245 238 250 249 247 262 246 233 242 238
Height
3134 3137 3138 3145 3150 3154 3158 3161 3163 3165 3167 3169 3170 3171 3172 3173 3174 3178 3180 3183 3185 3188 3193 3197 3201 3204 3205 3207 3210 3215 3218 3221 3224 3226 3228 3231 3233 3234 3236 3237 3238 3238 3238 3239
3133 3134 3139 3146 3150 3154 3157 3161 3163 3166 3167 3169 3169 3170 3171 3173 3175 3177 3180 3182 3185 3188 3191 3195 3199 3202 3205 3208 3211 3214 3217 3221 3223 3227 3228 3230 3233 3235 3236 3238 3239 3239 3240 3240
3130 3135 3139 3144 3147 3151 3155 3160 3162 3165 3166 3168 3170 3170 3171 3172 3173 3174 3178 3181 3185 3187 3190 3193 3197 3200 3204 3206 3210 3214 3217 3220 3223 3225 3228 3230 3232 3235 3237 3239 3240 3241 3241 3241
3131 3134 3137 3142 3146 3150 3154 3157 3161 3163 3166 3167 3169 3169 3170 3170 3170 3172 3174 3177 3183 3186 3189 3192 3195 3198 3202 3206 3210 3213 3216 3219 3221 3224 3227 3230 3232 3235 3238 3239 3240 3242 3242 3243
3131 3132 3135 3140 3144 3148 3153 3155 3159 3162 3164 3166 3168 3170 3169 3169 3170 3170 3172 3175 3178 3183 3188 3190 3194 3197 3201 3205 3208 3212 3215 3217 3220 3223 3227 3229 3232 3233 3236 3238 3240 3241 3243 3244
3130 3132 3136 3139 3143 3147 3150 3154 3157 3161 3163 3165 3165 3168 3169 3167 3167 3168 3168 3171 3175 3179 3182 3188 3192 3195 3199 3203 3206 3210 3213 3216 3219 3221 3225 3227 3231 3232 3234 3237 3239 3241 3243 3244
3129 3131 3133 3136 3140 3144 3148 3152 3156 3160 3162 3159 3163 3167 3168 3167 3166 3166 3166 3167 3170 3176 3179 3182 3187 3191 3195 3198 3202 3206 3210 3213 3216 3219 3222 3226 3228 3231 3232 3235 3237 3240 3242 3243
3127 3132 3131 3133 3136 3138 3144 3148 3147 3148 3153 3156 3161 3163 3165 3165 3165 3164 3165 3166 3166 3170 3175 3179 3182 3186 3190 3194 3198 3202 3206 3210 3213 3216 3219 3222 3226 3227 3230 3232 3235 3238 3241 3242
3125 3129 3129 3130 3133 3137 3140 3144 3145 3147 3150 3153 3159 3163 3164 3164 3164 3164 3164 3165 3167 3169 3171 3175 3178 3182 3187 3191 3194 3197 3202 3206 3210 3214 3216 3219 3222 3226 3228 3230 3232 3236 3239 3241
3123 3128 3129 3130 3132 3135 3136 3141 3145 3144 3147 3146 3155 3159 3160 3161 3162 3162 3163 3165 3166 3168 3170 3172 3175 3177 3181 3186 3191 3195 3198 3201 3206 3210 3213 3215 3219 3223 3226 3227 3229 3233 3237 3239
3123 3125 3130 3131 3131 3132 3135 3136 3139 3142 3143 3142 3146 3158 3155 3157 3159 3161 3162 3164 3165 3167 3168 3169 3171 3174 3176 3181 3184 3190 3194 3198 3201 3205 3209 3212 3215 3219 3222 3225 3227 3229 3232 3236
3123 3124 3127 3130 3130 3131 3132 3134 3136 3138 3142 3142 3144 3155 3153 3155 3157 3158 3160 3162 3164 3166 3167 3167 3169 3171 3173 3177 3181 3185 3189 3194 3199 3202 3205 3208 3211 3214 3217 3222 3225 3227 3229 3231
3122 3125 3129 3131 3134 3132 3132 3133 3133 3135 3137 3139 3142 3152 3152 3153 3153 3156 3158 3159 3161 3163 3163 3164 3165 3167 3169 3172 3174 3179 3184 3188 3194 3197 3201 3204 3206 3209 3212 3216 3220 3223 3226 3228
3121 3123 3126 3128 3128 3131 3133 3132 3133 3134 3138 3138 3142 3145 3149 3151 3152 3152 3154 3156 3157 3158 3159 3160 3162 3163 3163 3164 3167 3172 3177 3181 3186 3190 3194 3197 3202 3205 3208 3212 3214 3217 3221 3223
3121 3122 3124 3126 3127 3129 3132 3133 3133 3134 3136 3139 3141 3143 3145 3148 3149 3150 3151 3151 3153 3155 3156 3156 3157 3158 3159 3160 3161 3165 3169 3174 3179 3183 3187 3192 3196 3199 3202 3205 3208 3212 3214 3217
3117 3119 3121 3123 3125 3127 3128 3129 3131 3133 3135 3136 3139 3142 3144 3145 3146 3147 3148 3149 3149 3150 3152 3152 3152 3153 3153 3154 3154 3157 3161 3166 3171 3177 3181 3185 3188 3192 3195 3197 3201 3204 3207 3210
3116 3117 3120 3123 3124 3126 3128 3125 3127 3129 3132 3134 3136 3137 3139 3141 3142 3145 3146 3146 3147 3147 3148 3149 3148 3149 3149 3149 3149 3151 3154 3158 3163 3168 3173 3178 3182 3185 3188 3191 3193 3196 3199 3202
3114 3117 3119 3121 3124 3126 3120 3121 3123 3126 3127 3130 3131 3133 3135 3137 3138 3139 3142 3142 3143 3144 3146 3146 3145 3145 3145 3145 3146 3146 3147 3151 3155 3161 3165 3170 3174 3178 3180 3182 3186 3189 3192 3194
3112 3114 3116 3119 3121 3121 3119 3119 3122 3123 3126 3127 3128 3129 3131 3133 3135 3134 3135 3137 3138 3139 3140 3142 3143 3142 3141 3141 3141 3143 3143 3144 3146 3152 3158 3161 3166 3171 3173 3175 3178 3181 3184 3186
3110 3112 3115 3115 3116 3115 3115 3117 3119 3121 3123 3124 3125 3126 3127 3128 3129 3131 3130 3130 3132 3132 3134 3135 3138 3139 3138 3137 3136 3136 3139 3140 3141 3143 3146 3153 3158 3161 3165 3167 3169 3172 3175 3178
3109 3110 3112 3112 3113 3112 3112 3113 3115 3120 3123 3118 3120 3120 3121 3122 3122 3124 3125 3125 3124 3125 3126 3127 3129 3132 3133 3134 3133 3133 3132 3134 3135 3137 3139 3142 3145 3148 3153 3156 3160 3162 3165 3168
3106 3108 3109 3110 3110 3111 3108 3110 3113 3114 3113 3114 3114 3113 3113 3114 3114 3114 3116 3117 3117 3117 3117 3119 3120 3122 3125 3127 3128 3129 3128 3129 3129 3131 3132 3134 3137 3139 3141 3146 3151 3155 3156 3159
3103 3103 3104 3106 3106 3105 3106 3108 3108 3109 3111 3111 3111 3109 3108 3107 3106 3105 3103 3105 3106 3107 3108 3109 3110 3113 3117 3118 3119 3121 3122 3123 3124 3125 3127 3128 3131 3132 3132 3134 3138 3142 3146 3149
3098 3099 3100 3102 3102 3103 3103 3104 3105 3106 3106 3105 3104 3102 3101 3100 3100 3097 3094 3092 3092 3093 3095 3096 3097 3101 3106 3109 3110 3111 3114 3115 3117 3118 3121 3122 3124 3126 3126 3127 3130 3131 3134 3139
3096 3096 3097 3098 3098 3099 3100 3102 3102 3101 3099 3097 3096 3094 3092 3090 3090 3086 3084 3080 3078 3078 3081 3083 3084 3088 3092 3097 3100 3101 3103 3105 3107 3110 3111 3114 3116 3118 3120 3120 3120 3121 3125 3127
3091 3092 3093 3095 3095 3095 3095 3095 3094 3093 3092 3091 3090 3089 3086 3083 3081 3079 3075 3070 3065 3065 3067 3069 3072 3073 3078 3083 3086 3090 3091 3094 3096 3099 3101 3103 3105 3110 3112 3113 3112 3110 3115 3117